SCP
0 0 0 0 0 0 0 0 0 0 0 0 0 0 0 0 0 0 0 0 0 0 0 0 -0 -0 0 0 0 0 0 0 0 0 0 0 0 0 0 0 0 0 0
0 0 0 0 0 0 0 0 0 0 0 0 0 0 0 0 0 0 0 0 0 0 0 0 -0 0 0 0 0 0 0 0 0 0 0 0 0 0 0 0 0 0 0
0 0 0 0 0 0 0 0 0 0 0 0 0 0 0 0 0 0 0 0 0 0 0 0 0 0 0 0 0 0 0 0 0 0 0 0 0 0 0 0 0 0 0
0 0 0 0 0 0 0 0 0 0 0 0 0 0 0 0 0 0 0 0 0 0 0 0 0 0 0 0 0 0 0 0 0 0 0 0 0 0 0 0 0 0 0
0 0 0 0 0 0 0 0 0 0 0 0 0 0 0 0 0 0 0 0 0 0 0 0 0 0 0 0 0 0 0 0 0 0 0 0 0 0 0 0 0 0 0
0 0 0 1 1 0 0 0 0 0 0 0 0 0 0 0 0 0 0 0 0 0 0 0 0 0 0 0 0 0 0 0 0 0 0 0 0 0 0 0 0 0 0
0 0 1 1 1 1 0 0 0 0 0 0 0 0 0 0 0 0 0 0 0 0 0 0 0 0 0 0 0 0 0 0 0 0 0 0 0 0 0 0 0 0 0
0 1 1 1 1 1 1 1 0 0 0 0 0 0 0 0 0 0 0 0 0 0 0 0 0 0 0 0 0 0 0 0 0 0 0 0 0 0 0 0 0 0 0
1 1 1 1 1 1 1 1 1 1 0 0 0 0 0 0 0 0 0 0 0 0 0 0 0 0 0 0 0 0 0 0 0 0 0 0 0 0 0 0 0 0 0
1 1 1 1 1 1 1 1 1 1 1 0 0 0 0 0 0 0 0 0 0 0 0 0 0 0 0 0 0 0 0 0 0 0 0 0 0 0 0 0 0 0 0
1 1 1 1 1 1 1 1 1 1 1 1 0 0 0 0 0 0 0 0 0 0 0 0 0 0 0 0 0 0 0 0 0 0 0 0 0 0 0 0 0 0 0
1 1 1 1 1 1 1 1 1 1 1 1 1 1 1 0 0 0 0 0 0 0 0 0 0 0 0 0 0 0 0 0 0 0 0 0 0 0 0 0 0 0 0
1 1 1 1 1 1 1 1 1 1 1 1 1 1 1 1 1 1 0 0 0 0 0 0 0 0 0 0 0 0 0 0 0 0 0 0 0 0 0 0 0 0 0
1 1 1 1 1 1 1 1 1 1 1 1 1 1 1 1 1 1 1 0 0 0 0 0 0 1 1 1 1 1 0 0 0 0 0 0 0 0 0 0 0 0 0
1 1 1 1 1 1 1 1 1 1 1 1 1 1 1 1 1 1 1 1 0 0 0 0 0 1 1 1 1 1 0 0 0 0 0 0 0 0 0 0 0 0 0
1 1 1 1 1 1 1 1 1 1 1 1 1 1 1 1 1 1 1 1 0 0 0 0 0 0 0 1 1 1 0 0 0 0 0 0 0 0 0 0 0 0 0
1 1 1 1 1 1 1 1 1 1 1 1 1 1 1 1 1 1 1 0 0 0 0 0 0 0 0 0 0 0 0 0 0 0 0 0 0 0 0 0 0 0 0
1 1 1 1 1 0 0 0 0 0 1 1 1 1 1 1 1 1 1 0 0 0 0 0 0 0 0 0 0 0 0 0 0 0 0 0 0 0 0 0 0 0 0
0 0 0 0 0 0 0 0 0 0 1 1 1 1 1 1 1 1 0 0 0 0 0 0 0 0 0 0 0 0 0 0 0 0 0 0 0 0 0 0 0 0 0
0 0 0 0 0 0 0 0 0 0 0 0 0 1 1 1 1 0 0 0 0 0 0 0 0 0 0 0 0 0 0 0 0 0 0 0 0 0 0 0 0 0 0
0 0 0 0 0 0 0 0 0 0 0 0 0 0 0 0 0 0 0 0 0 0 0 0 0 0 0 0 0 0 0 0 0 0 0 0 0 0 0 0 0 0 0
0 0 0 0 0 0 0 0 0 0 0 0 0 0 0 0 0 0 0 0 0 0 0 0 0 0 0 0 0 0 0 0 0 0 0 0 0 0 0 0 0 0 0
0 0 0 0 0 0 0 0 0 0 0 0 0 0 0 0 0 0 0 0 0 0 0 0 0 0 0 0 0 0 0 0 0 0 0 0 0 0 0 0 0 0 0
0 0 0 0 0 0 -0 0 0 0 0 0 0 0 0 0 0 0 0 0 0 0 0 0 0 0 0 0 0 0 0 0 0 0 0 0 0 0 0 0 0 0 0
-0 -0 0 0 -0 0 0 0 0 0 0 0 0 0 0 0 0 0 0 0 0 0 0 0 0 0 0 0 0 0 0 0 0 0 0 0 0 0 0 0 0 0 0
-0 -0 -0 -0 -0 -0 0 0 0 0 0 0 0 0 0 0 0 0 0 0 0 0 0 0 0 0 0 0 0 0 0 0 0 0 0 0 0 0 0 0 0 0 0
Wind_Speed
9 11 19 19 18 17 17 16 16 16 17 17 17 17 17 16 15 14 14 13 12 11 10 9 9 9 9 10 10 10 11 11 11 11 12 12 11 11 12 13 12 10 13
14 14 19 19 18 17 17 16 16 16 16 16 16 16 16 16 15 14 13 12 12 11 10 9 9 9 9 9 9 10 10 10 10 10 11 10 10 10 11 11 11 8 12
14 13 16 18 18 17 17 16 16 16 16 16 15 15 15 15 14 14 13 12 11 11 10 9 9 8 8 8 9 9 9 9 9 9 8 5 6 10 10 10 11 12 12
13 11 12 19 18 17 16 16 15 15 15 15 15 14 14 14 14 13 13 12 11 10 10 9 8 8 8 8 8 8 8 8 8 8 4 3 3 8 10 11 11 11 11
11 9 13 21 19 18 17 16 15 15 15 14 14 14 13 13 13 12 12 11 10 9 9 8 8 8 8 7 7 7 7 7 7 6 3 2 1 6 9 10 11 11 11
11 9 12 21 19 18 17 16 15 15 14 14 13 13 13 12 12 11 11 10 9 9 8 8 8 8 7 7 7 7 6 6 5 3 2 2 2 6 9 10 11 12 12
11 8 11 20 19 18 17 16 15 14 14 13 13 12 12 12 11 11 11 10 10 9 9 9 8 8 8 8 8 8 7 7 4 3 3 3 4 8 10 11 12 12 13
12 9 9 18 18 17 16 15 15 14 13 13 13 12 12 12 11 11 11 11 11 10 10 10 10 9 9 9 9 8 8 8 5 4 4 4 7 10 12 13 13 14 14
10 8 6 9 12 16 16 15 14 13 13 13 13 13 12 12 12 12 11 11 11 11 11 11 11 11 10 10 10 9 9 9 5 3 5 4 7 9 12 14 15 15 15
7 6 6 6 6 7 8 13 14 13 13 13 13 13 13 13 12 13 11 12 12 12 12 12 12 12 11 11 11 11 11 9 6 5 4 5 9 10 13 14 15 16 16
9 6 6 6 5 5 5 8 10 12 12 12 11 13 12 6 6 7 10 13 14 14 14 14 14 13 12 12 12 12 11 5 6 5 5 9 12 13 13 14 15 16 17
11 9 6 6 5 4 4 3 2 3 4 5 4 5 4 4 5 8 9 15 15 15 15 16 16 14 11 6 9 11 5 7 7 6 7 13 14 15 14 14 15 16 17
8 7 5 4 4 3 2 1 1 1 2 3 5 5 4 4 4 6 3 7 8 11 8 9 9 7 6 6 6 6 7 7 5 6 8 14 14 15 15 14 15 16 18
8 6 5 5 4 3 2 1 2 3 3 4 6 7 5 4 5 5 5 5 5 4 5 5 4 6 7 8 8 8 8 6 5 5 7 14 14 14 14 14 14 14 15
8 7 7 6 5 4 3 3 3 4 5 6 6 6 8 7 7 6 6 5 6 5 5 5 5 6 6 7 6 7 8 8 7 7 5 12 14 13 14 14 13 13 13
7 7 6 6 6 6 5 5 5 5 5 5 5 7 8 7 7 7 6 6 6 6 5 5 5 4 4 3 5 5 6 6 6 7 6 8 13 13 13 13 13 13 13
5 4 3 3 3 3 5 6 5 5 5 5 6 7 8 8 8 7 6 6 6 5 5 4 4 3 2 2 3 4 4 5 5 6 6 5 6 10 12 13 13 13 14
3 1 1 1 3 4 4 5 5 5 5 5 5 5 8 9 9 7 6 6 5 4 3 3 3 2 2 2 2 3 3 3 5 6 6 6 5 6 9 12 12 13 14
3 2 3 3 4 4 4 4 5 4 5 4 4 4 6 7 7 6 6 5 4 3 3 3 2 3 3 3 3 3 3 4 4 5 6 6 6 6 6 8 12 13 15
3 2 3 3 3 4 3 3 3 3 3 2 2 2 4 4 5 5 5 5 5 3 3 3 3 2 2 2 2 2 3 3 4 4 5 4 4 6 6 7 6 8 13
3 3 3 4 4 3 2 2 2 2 2 2 1 2 3 3 4 4 4 5 5 5 5 5 3 3 2 2 1 2 2 2 3 2 2 2 2 3 4 5 5 5 5
4 4 4 4 5 4 2 2 2 2 2 1 2 3 3 3 3 4 5 5 5 4 4 5 4 3 2 2 2 1 2 3 2 1 1 1 1 2 3 4 5 6 6
5 5 4 3 3 4 3 2 1 2 2 2 3 3 3 3 3 4 5 4 5 5 5 6 5 6 4 3 2 3 2 2 2 2 2 1 2 2 3 4 4 5 5
4 3 3 3 3 3 3 3 4 3 2 2 2 2 4 4 3 2 2 3 4 4 4 5 5 4 5 3 2 2 2 3 2 2 2 2 3 4 4 4 5 4 4
4 3 3 2 2 2 2 3 3 2 1 1 2 3 4 4 4 4 2 1 2 3 4 5 5 5 4 4 4 3 2 1 2 2 3 3 3 3 4 4 3 3 3
5 5 4 3 2 2 0 1 2 2 1 0 1 2 2 2 2 4 4 2 2 3 4 5 6 7 6 5 4 4 4 3 3 4 4 3 3 3 4 3 2 2 3
Wind_Direction
167 164 171 163 156 151 148 145 142 138 136 135 136 140 143 146 149 152 154 154 154 153 149 143 136 130 126 125 124 124 124 125 126 129 129 128 125 121 118 116 115 116 117
154 160 168 163 157 153 150 147 145 142 140 140 141 144 147 150 153 155 156 156 157 156 153 148 144 139 135 133 131 131 131 133 135 136 135 134 137 134 127 124 125 127 126
147 157 164 161 158 154 151 150 148 146 144 144 146 149 152 155 157 158 159 160 160 158 155 153 150 146 143 140 139 139 139 140 141 141 127 114 136 144 141 138 138 134 132
145 152 158 160 158 156 153 152 152 151 150 151 152 154 157 160 162 164 164 164 164 162 160 160 158 155 152 150 148 148 147 147 148 139 115 118 135 152 154 152 149 145 142
142 149 162 160 159 158 157 157 156 157 158 158 159 161 163 165 168 170 170 171 172 171 171 171 169 165 163 162 161 160 160 160 162 143 139 146 130 165 164 164 162 158 154
145 150 165 162 162 161 161 162 162 164 166 167 168 169 170 173 176 178 179 181 183 183 184 184 184 179 179 179 179 179 180 183 177 143 160 184 195 193 182 180 178 173 167
147 153 167 164 164 165 166 167 168 170 173 176 177 178 179 182 186 187 188 191 193 195 197 198 199 197 197 198 199 198 200 206 183 187 209 213 211 216 207 198 192 186 180
150 151 162 166 167 168 170 172 174 176 179 184 186 188 190 193 196 198 199 202 204 206 208 210 211 212 213 215 216 217 217 222 218 210 219 224 226 225 217 209 202 197 191
145 145 155 163 168 172 174 177 180 184 187 192 196 198 201 203 206 209 211 214 216 218 220 222 224 225 226 227 230 232 232 234 228 216 231 229 233 229 222 213 207 203 199
139 143 146 149 154 162 173 184 187 192 197 201 205 208 212 214 216 220 220 225 227 229 231 233 234 235 236 236 239 242 245 247 240 229 236 240 242 240 234 224 215 210 206
157 157 148 146 147 150 162 190 194 202 206 210 215 219 220 224 228 231 233 233 237 239 240 240 240 241 241 241 242 244 247 237 236 236 233 241 243 242 240 233 223 215 211
173 174 161 150 144 142 172 179 191 204 209 212 211 225 222 213 225 234 243 243 244 246 247 245 243 242 242 236 242 247 240 235 235 238 238 240 242 241 241 237 230 222 216
164 169 162 150 135 143 153 153 189 206 210 215 217 220 225 222 225 235 235 249 253 255 253 252 248 235 228 223 225 227 234 238 237 240 243 245 242 240 239 237 232 227 222
141 148 138 138 141 151 155 198 207 210 215 220 221 217 216 225 227 227 232 234 239 245 250 246 238 232 229 228 227 230 234 236 238 239 245 251 249 244 241 238 233 229 226
135 142 142 139 145 157 179 215 225 230 223 224 222 219 217 224 230 229 230 231 235 237 239 240 236 236 234 233 231 233 236 238 240 239 246 255 257 249 245 241 234 228 228
134 143 149 160 175 180 196 213 221 225 234 232 228 226 222 224 227 227 228 229 232 231 234 233 231 231 231 227 235 234 237 241 244 245 245 257 260 255 250 247 239 233 231
123 141 157 190 227 231 226 236 238 237 232 231 228 226 226 226 228 228 227 231 231 224 225 223 223 214 220 221 235 241 240 241 246 250 251 249 256 259 255 250 244 240 239
79 72 259 265 276 266 256 252 249 246 240 239 236 229 230 229 224 223 224 227 219 207 204 201 190 189 207 213 226 240 238 239 246 250 250 247 246 253 254 252 249 242 239
35 360 312 300 288 290 285 261 256 250 238 237 238 239 237 232 225 220 222 217 199 193 195 196 173 175 190 207 228 239 241 240 246 254 253 250 247 249 251 255 253 248 244
30 9 335 318 320 314 303 300 278 261 258 253 242 248 251 238 225 214 217 199 181 182 186 181 170 176 190 200 239 257 261 261 258 253 257 259 253 254 254 254 253 251 247
26 35 10 2 347 341 329 336 319 306 297 300 288 264 254 244 223 202 211 194 183 187 188 179 166 176 191 173 177 297 302 273 259 244 251 255 264 269 265 258 252 246 246
21 25 27 16 357 354 332 300 274 280 290 317 337 339 306 272 243 214 210 200 190 183 180 181 168 162 178 177 166 147 332 334 327 350 305 261 300 307 299 288 266 250 244
18 17 23 13 7 5 350 324 331 346 350 7 7 352 326 297 250 230 213 205 197 188 191 191 181 170 179 194 189 161 168 229 298 317 318 322 321 310 305 301 290 272 253
352 354 8 10 19 23 29 45 52 40 20 355 341 333 340 350 347 300 242 216 206 203 202 199 191 180 165 179 197 205 188 170 184 301 312 314 312 301 304 308 307 297 284
318 321 320 333 6 23 50 73 80 75 45 322 340 355 359 359 5 3 330 259 237 226 218 206 193 192 184 176 177 172 180 195 189 210 273 308 313 294 296 304 309 314 313
296 292 285 286 287 284 293 117 133 141 164 1 354 353 348 343 353 4 356 332 276 251 234 220 208 202 200 193 188 183 175 175 185 196 228 262 292 291 299 303 317 332 337